Wind_Speed
6 7 10 11 13 13 13 13 13 14 15 16 17 17 16 14 11 10 7 3 6 10 12 13 16 17 15 14 12 10 8 7 6 4 3 3 3 3 3 4 4 5 5 6
6 7 9 11 12 12 13 13 13 13 15 15 15 15 14 11 10 9 7 2 5 8 10 13 15 15 14 13 11 9 8 7 6 4 3 2 3 3 4 4 4 5 5 6
7 8 9 11 12 12 12 13 13 13 14 14 14 14 13 10 9 8 6 5 5 7 10 12 13 15 14 12 11 10 8 7 6 4 3 3 3 3 3 4 4 5 6 6
9 8 9 10 11 12 12 13 13 13 13 13 13 13 12 9 7 6 6 6 6 8 9 11 14 14 13 12 10 9 8 6 5 4 4 4 3 3 3 3 4 5 5 6
10 9 9 9 10 12 13 13 13 13 13 12 12 12 10 8 7 6 5 5 6 6 8 10 13 12 12 11 9 8 7 6 5 5 5 4 4 4 4 4 4 5 6 6
10 9 10 10 10 12 13 13 12 12 12 11 11 10 9 7 6 5 4 4 4 4 6 8 10 10 10 9 8 7 6 6 6 6 5 5 5 4 4 4 5 5 6 6
10 10 12 12 12 13 13 13 13 12 12 11 10 9 8 6 6 5 3 2 2 3 5 6 7 8 8 7 7 7 7 7 7 7 6 6 5 5 5 5 5 6 7 7
12 12 14 14 15 15 15 14 15 15 14 12 9 8 7 6 6 6 4 3 1 2 4 5 6 7 7 7 7 8 8 8 8 8 7 6 6 6 6 7 7 8 9 10
15 14 15 16 16 16 16 15 16 16 15 12 9 7 7 7 7 7 6 5 4 4 5 6 6 7 7 8 8 9 9 9 9 9 8 8 8 8 8 9 9 10 11 13
16 16 14 15 16 17 17 17 17 17 17 14 9 7 8 9 9 8 8 7 7 7 7 8 8 9 9 9 10 10 11 11 11 11 11 10 11 10 10 11 12 13 14 15
17 17 16 16 17 18 18 18 18 18 17 16 12 8 8 9 10 9 9 8 8 9 10 10 11 11 11 11 11 12 12 12 13 13 13 13 13 13 13 13 15 16 17 18
15 16 15 15 16 16 17 17 18 18 17 15 13 10 11 11 12 11 10 9 9 9 10 11 12 13 13 13 14 14 14 14 15 15 16 16 16 16 16 16 17 19 20 21
14 13 13 13 14 15 16 17 17 17 16 15 14 12 12 13 12 11 11 11 11 10 11 12 13 14 15 15 15 15 16 16 17 17 18 18 19 19 19 19 21 22 23 24
14 13 13 13 14 15 15 16 17 18 17 16 15 13 13 13 13 13 13 13 13 13 12 13 13 14 15 16 16 16 17 18 19 19 19 20 21 21 22 23 24 25 26 27
15 15 14 14 15 16 16 16 18 19 18 18 16 16 15 15 15 14 14 14 14 15 14 14 14 14 15 16 16 17 17 18 19 20 21 22 23 23 24 25 27 28 29 29
17 16 16 16 17 18 17 17 18 18 18 19 19 19 18 17 17 17 17 17 17 17 16 16 15 15 16 16 16 17 18 20 20 21 23 24 25 26 27 28 29 30 31 32
17 17 17 18 19 20 19 18 19 19 19 19 20 20 19 19 19 20 20 19 19 19 19 19 19 18 18 18 18 20 21 23 24 25 26 27 28 29 30 31 32 33 34 35
18 19 20 20 21 22 20 19 20 20 20 20 21 21 21 21 21 21 21 21 23 21 20 20 20 20 20 21 22 23 24 25 26 28 28 29 31 32 34 34 35 36 37 38
19 19 21 21 22 22 20 20 21 21 21 21 21 21 20 21 22 21 21 22 24 23 23 22 22 22 22 23 24 26 27 29 30 31 31 32 34 35 37 38 39 40 41 41
20 21 22 22 23 22 20 20 20 21 21 21 21 20 20 20 20 19 20 21 21 23 24 23 24 24 25 26 27 28 30 31 32 34 35 35 37 38 40 41 43 44 44 45
21 22 22 21 21 20 20 20 20 21 20 20 21 20 20 20 18 18 18 18 19 20 22 23 25 25 27 28 30 31 32 34 35 36 37 38 40 41 43 45 46 47 49 50
22 21 21 21 21 21 20 20 20 21 21 21 21 20 20 20 18 17 18 18 18 19 22 24 26 27 29 30 32 33 35 36 38 39 41 42 43 45 46 48 49 50 52 53
22 22 22 21 21 21 20 20 20 20 21 21 21 21 21 20 18 17 18 20 20 22 24 25 27 29 30 32 33 35 37 38 40 41 43 44 45 47 48 50 51 53 54 55
23 23 23 22 22 21 21 21 21 22 23 22 22 20 19 20 20 21 22 22 23 25 26 28 29 31 32 34 36 37 39 40 42 43 45 46 47 49 51 53 54 56 57 59
24 24 24 24 23 23 22 23 23 23 23 23 22 21 21 22 22 23 23 24 25 27 29 30 32 33 34 36 37 39 41 42 44 46 47 49 50 52 54 55 57 59 61 63
25 25 25 25 25 24 24 24 24 24 24 24 22 22 22 23 23 23 24 25 27 29 30 32 33 35 36 38 40 42 44 45 47 48 50 52 54 55 57 59 61 62 64 66
Wind_Direction
304 313 323 329 335 340 341 345 347 347 348 348 345 343 342 344 345 343 339 284 215 201 197 192 186 183 182 181 178 178 183 188 196 201 213 236 259 280 298 308 316 322 330 337
283 300 313 320 326 331 334 340 345 347 351 351 350 350 351 354 0 6 14 49 186 191 183 181 180 174 173 172 168 170 176 178 183 193 210 243 267 285 295 300 310 320 329 338
268 294 306 311 321 327 329 335 339 343 348 349 350 352 354 353 2 20 40 69 135 161 171 172 168 168 168 167 168 170 174 177 187 202 222 248 266 281 288 298 314 329 336 340
260 277 298 311 322 327 332 334 335 335 340 348 352 355 355 359 14 32 47 71 110 138 156 161 163 164 167 167 169 174 180 184 195 212 230 242 254 268 282 302 323 336 340 343
261 275 291 312 324 328 333 335 336 334 337 342 346 350 356 360 13 28 47 67 93 123 146 159 166 164 166 168 175 185 190 196 209 220 229 240 251 266 284 304 321 331 336 340
261 276 290 304 317 325 328 328 333 335 333 339 338 340 348 357 6 15 30 63 92 117 141 152 162 166 167 174 186 196 203 208 217 224 231 240 254 269 284 295 308 320 327 332
259 277 288 292 305 318 322 324 328 331 333 334 330 329 338 347 355 359 359 28 91 131 149 156 166 176 183 192 200 208 212 217 224 230 235 244 257 269 279 289 300 308 312 315
260 276 286 287 296 307 312 315 320 324 328 332 328 321 320 326 334 336 329 318 256 189 186 184 187 192 200 208 213 219 224 228 231 235 240 250 261 269 278 287 296 302 306 307
272 282 285 285 290 295 300 304 309 314 320 323 322 314 302 307 316 322 312 292 268 243 227 222 219 220 224 228 230 233 237 238 241 244 248 256 264 271 279 287 294 300 303 304
278 285 285 286 287 288 292 299 301 305 308 311 305 299 296 292 295 304 303 291 267 256 249 244 242 242 244 246 245 246 247 249 251 253 256 260 266 272 280 288 294 297 298 299
276 283 281 279 284 287 291 295 298 298 299 297 291 288 288 282 284 290 295 294 279 264 258 253 253 253 253 254 254 255 255 254 256 258 260 264 268 273 279 285 289 292 295 296
279 283 280 279 282 287 292 293 296 293 292 290 283 279 276 278 277 278 279 281 277 270 263 259 257 257 257 258 259 258 257 256 258 260 262 265 268 272 277 282 285 288 291 293
280 286 280 275 280 289 293 296 298 297 291 289 283 279 275 273 271 272 273 273 273 271 268 263 260 258 258 257 258 257 257 257 258 260 263 266 269 273 277 281 284 287 289 292
282 281 274 274 281 289 295 297 299 297 292 289 285 280 274 271 269 270 268 267 267 267 267 265 263 261 257 256 257 258 259 261 262 264 267 270 273 276 279 282 285 287 290 291
281 279 274 276 279 285 292 296 298 296 291 287 287 281 276 271 272 271 269 267 267 266 263 263 265 265 261 258 258 260 262 264 266 270 272 275 277 280 282 284 286 288 290 291
277 279 276 277 281 284 287 293 298 298 294 289 285 283 278 274 275 272 271 269 269 266 262 262 266 266 264 264 266 268 269 271 272 275 277 279 281 282 284 286 288 289 290 291
271 273 275 278 282 285 289 295 296 297 296 293 287 284 280 275 274 273 267 267 264 262 262 262 263 265 267 270 273 275 276 278 278 280 281 283 284 286 286 287 289 290 290 290
270 272 274 278 280 283 292 292 290 292 294 292 289 284 280 278 277 273 266 267 264 256 256 260 261 263 267 272 275 278 281 281 282 284 285 286 287 288 288 288 289 289 288 290
269 272 274 279 283 287 288 287 287 288 290 290 288 285 282 283 278 272 265 263 260 253 253 256 259 262 269 274 277 280 283 283 285 285 286 287 287 287 287 287 288 288 288 289
267 272 274 278 282 286 288 286 286 287 287 288 286 286 284 281 276 273 267 260 258 255 253 256 261 264 269 274 276 279 281 282 283 284 285 286 287 287 286 286 286 287 287 288
265 269 272 275 280 284 287 286 286 286 289 288 287 284 281 276 275 274 271 264 262 264 262 265 267 269 273 277 279 280 282 283 284 284 285 285 285 285 285 285 285 286 286 286
261 265 269 273 278 283 285 285 286 286 288 289 289 285 279 273 275 276 274 272 272 271 271 271 272 275 277 279 280 281 282 283 284 284 284 284 284 284 284 284 285 285 285 286
260 264 268 273 278 281 282 283 284 286 287 287 287 286 279 273 273 272 272 273 275 276 276 278 279 279 280 281 282 283 284 284 285 285 285 285 285 285 285 285 285 285 286 286
262 265 269 272 276 278 280 283 284 283 284 287 285 278 272 271 271 270 270 272 276 279 281 283 284 284 285 285 285 286 286 286 287 287 287 287 287 287 287 287 287 287 287 287
264 268 271 274 274 276 279 282 283 283 283 282 283 277 275 270 273 274 275 279 282 284 285 286 287 288 288 288 289 289 289 289 289 289 289 289 289 289 288 288 288 288 287 287
265 268 272 274 275 276 278 280 281 280 280 280 280 278 276 279 281 281 283 284 285 287 287 288 289 289 290 290 291 291 291 292 292 291 291 291 290 290 289 289 288 288 288 287
Height
5882 5882 5881 5879 5878 5876 5873 5871 5868 5864 5860 5857 5853 5850 5846 5843 5840 5837 5835 5834 5835 5836 5838 5840 5843 5846 5850 5854 5857 5860 5862 5864 5866 5867 5868 5868 5869 5869 5869 5869 5869 5869 5868 5867
5881 5881 5880 5878 5877 5875 5872 5870 5867 5864 5860 5857 5853 5850 5847 5844 5841 5838 5836 5835 5835 5836 5837 5840 5843 5845 5850 5853 5856 5859 5862 5863 5865 5866 5867 5867 5868 5868 5868 5868 5868 5868 5867 5866
5880 5880 5879 5877 5875 5873 5871 5869 5866 5864 5861 5857 5854 5851 5848 5846 5843 5841 5838 5836 5836 5837 5839 5841 5843 5846 5850 5853 5856 5859 5861 5862 5864 5865 5866 5867 5867 5867 5867 5867 5867 5866 5866 5865
5878 5878 5877 5875 5873 5871 5869 5868 5865 5863 5861 5858 5856 5853 5849 5847 5845 5843 5841 5840 5839 5840 5841 5842 5845 5848 5851 5853 5856 5858 5860 5862 5863 5864 5865 5866 5866 5866 5866 5866 5865 5865 5864 5864
5876 5876 5875 5873 5872 5870 5868 5866 5865 5862 5860 5858 5856 5854 5852 5848 5847 5846 5844 5843 5843 5842 5842 5843 5846 5848 5851 5853 5856 5858 5860 5861 5862 5863 5864 5864 5865 5865 5865 5864 5864 5863 5863 5862
5874 5873 5873 5872 5870 5869 5867 5866 5864 5862 5860 5859 5857 5855 5853 5850 5849 5848 5847 5846 5846 5845 5845 5845 5847 5849 5851 5854 5856 5858 5859 5860 5861 5862 5863 5863 5863 5863 5863 5863 5862 5862 5861 5861
5872 5872 5870 5869 5868 5867 5866 5865 5863 5861 5859 5858 5857 5855 5854 5852 5850 5849 5848 5848 5847 5847 5848 5848 5849 5850 5852 5854 5856 5857 5858 5859 5860 5861 5861 5862 5862 5862 5861 5861 5860 5860 5859 5859
5870 5870 5868 5867 5866 5865 5864 5863 5862 5860 5858 5857 5856 5855 5854 5852 5851 5850 5849 5849 5848 5848 5849 5849 5850 5851 5853 5854 5855 5856 5857 5858 5858 5859 5859 5860 5860 5860 5859 5859 5858 5858 5857 5856
5866 5866 5865 5863 5863 5862 5861 5860 5859 5858 5856 5856 5855 5854 5853 5852 5851 5850 5849 5849 5848 5848 5849 5849 5850 5851 5852 5853 5854 5854 5855 5856 5856 5856 5857 5857 5857 5857 5857 5856 5855 5855 5854 5853
5862 5862 5862 5860 5860 5859 5858 5857 5856 5855 5854 5853 5854 5853 5852 5851 5850 5850 5849 5848 5847 5847 5848 5848 5849 5850 5850 5851 5851 5852 5853 5853 5853 5853 5854 5854 5854 5854 5853 5852 5852 5851 5850 5849
5858 5858 5858 5857 5856 5855 5855 5854 5852 5851 5851 5851 5851 5854 5851 5850 5849 5848 5847 5847 5846 5846 5846 5846 5846 5847 5848 5848 5848 5849 5849 5849 5850 5850 5850 5850 5850 5850 5849 5848 5847 5846 5845 5844
5853 5854 5853 5853 5853 5852 5851 5850 5849 5848 5848 5847 5847 5851 5848 5848 5847 5846 5846 5845 5844 5844 5844 5844 5844 5844 5844 5845 5845 5845 5846 5846 5846 5846 5846 5846 5846 5845 5844 5843 5842 5841 5840 5839
5850 5849 5849 5850 5851 5849 5847 5846 5845 5845 5844 5844 5844 5848 5845 5845 5845 5844 5844 5843 5843 5842 5842 5842 5842 5841 5842 5842 5842 5842 5842 5842 5842 5842 5842 5841 5840 5839 5838 5837 5836 5835 5833 5832
5846 5846 5846 5847 5846 5845 5844 5843 5842 5841 5841 5841 5841 5842 5842 5842 5842 5842 5841 5841 5841 5840 5840 5839 5839 5838 5838 5839 5839 5838 5838 5838 5838 5837 5836 5836 5835 5833 5832 5831 5829 5828 5826 5825
5841 5842 5841 5842 5841 5840 5840 5839 5838 5838 5837 5837 5838 5837 5838 5838 5838 5838 5838 5838 5838 5837 5837 5836 5836 5835 5835 5835 5834 5834 5833 5833 5832 5831 5830 5829 5828 5827 5825 5823 5822 5820 5818 5817
5837 5837 5837 5837 5836 5835 5835 5835 5834 5833 5833 5832 5832 5833 5833 5833 5834 5834 5833 5833 5833 5833 5833 5832 5831 5831 5831 5830 5829 5829 5828 5827 5826 5825 5824 5822 5821 5819 5817 5815 5813 5812 5810 5808
5831 5832 5832 5832 5831 5830 5831 5831 5830 5829 5828 5828 5827 5828 5827 5827 5828 5828 5828 5828 5827 5827 5827 5827 5826 5826 5825 5825 5824 5823 5822 5820 5819 5818 5816 5814 5813 5811 5809 5807 5805 5803 5801 5799
5826 5826 5826 5826 5827 5826 5829 5826 5825 5824 5823 5822 5822 5821 5821 5821 5821 5821 5821 5821 5821 5821 5821 5821 5820 5820 5819 5818 5817 5816 5815 5813 5812 5810 5808 5806 5804 5802 5800 5798 5796 5794 5791 5789
5820 5821 5821 5820 5820 5820 5821 5820 5819 5819 5818 5817 5816 5815 5815 5814 5814 5813 5813 5813 5813 5813 5813 5813 5813 5813 5812 5811 5810 5808 5807 5805 5803 5801 5799 5797 5795 5793 5791 5788 5786 5783 5780 5778
5814 5815 5815 5815 5814 5814 5816 5814 5813 5813 5812 5811 5810 5809 5808 5808 5807 5807 5806 5805 5806 5806 5805 5806 5806 5805 5805 5804 5802 5801 5799 5797 5795 5793 5790 5788 5786 5783 5781 5778 5775 5772 5769 5766
5808 5808 5809 5809 5808 5808 5809 5807 5807 5808 5807 5805 5804 5802 5802 5801 5801 5800 5799 5798 5798 5798 5798 5798 5798 5797 5796 5795 5793 5792 5789 5787 5785 5783 5780 5778 5775 5772 5769 5766 5763 5760 5757 5754
5802 5802 5803 5803 5803 5805 5803 5802 5802 5801 5799 5798 5797 5796 5795 5795 5794 5794 5793 5792 5792 5791 5791 5790 5789 5788 5787 5786 5784 5782 5779 5777 5775 5772 5769 5766 5763 5760 5757 5754 5750 5747 5743 5740
5795 5796 5797 5798 5799 5798 5796 5796 5795 5794 5793 5792 5791 5790 5789 5788 5788 5787 5787 5786 5786 5785 5784 5783 5781 5780 5778 5776 5774 5771 5769 5766 5763 5760 5757 5754 5750 5747 5743 5740 5736 5732 5728 5724
5789 5789 5790 5791 5791 5790 5790 5789 5788 5787 5786 5785 5784 5783 5782 5782 5781 5781 5780 5779 5778 5777 5776 5774 5772 5770 5768 5765 5763 5760 5757 5754 5751 5748 5744 5741 5737 5733 5729 5724 5720 5716 5711 5707
5782 5783 5783 5783 5784 5784 5783 5783 5782 5780 5780 5779 5777 5776 5775 5775 5774 5773 5772 5771 5770 5768 5767 5764 5762 5760 5757 5754 5751 5748 5745 5742 5738 5734 5730 5726 5722 5718 5713 5708 5703 5698 5694 5688
5775 5776 5776 5777 5777 5777 5776 5776 5775 5774 5772 5771 5770 5769 5768 5767 5766 5766 5765 5763 5762 5760 5758 5755 5752 5750 5747 5743 5740 5737 5733 5729 5725 5721 5716 5711 5707 5702 5696 5691 5686 5680 5674 5669